Location: Armagh
(54.3500°N, 6.6670°W)
Time: 02:13:37
(UTC+00:00)

ISS - Pass Details

Date: 08 December 2017
Orbit: 402 x 407 km, 51.6° (Epoch: 18 January)

Event Time Altitude Azimuth Distance (km) Brightness Sun altitude
Rises 19:30:04 0° 276° (W) 2,341 1.3 -28.6°
Reaches altitude 10° 19:32:18 10° 265° (W) 1,477 -0.1 -29.0°
Enters shadow 19:33:11 16° 257° (WSW) 1,167 -0.8 -29.1°
